[[{"header":{"parameterUnit":"m.s-1","parameterCategory":1,"la1":30.2991,"la2":30.254,"lo1":-89.0895,"lo2":-89.0444,"dy":0.0017,"dx":0.0017,"nx":28,"ny":28,"refTime":"2023-10-16T09:00:00:Z","depth":0,"parameterNumber":2,"parameterNumberName":"U-component_of_WINDS"},"data":[0,0,0,0,0,0,0,0,0,0,0,0,0,0,0,0,0,0,0,0,0,0,0,0,0,0,0,0,0,0,0,0,0,0,0,0,0,0,0,0,0,0,0,0,0,0,0,0,0,0,0,0,0,0,0,0,0,0,1.2283,1.2284,0,1.2356,1.2356,1.2357,1.2321,1.2319,1.2317,1.2315,1.2393,1.2397,1.24,0,0,0,0,0,0,0,0,0,0,0,0,0,1.2116,1.2119,1.2283,1.2284,1.2285,1.2356,1.2357,1.2358,1.2321,1.2319,1.2316,1.2314,1.2392,1.2396,1.2401,0,0,0,0,0,0,0,0,0,0,0,0,0,1.2189,1.212,1.2283,1.2275,1.2275,1.2355,1.2357,1.2358,1.2321,1.2318,1.2316,1.2313,1.239,1.2396,1.2401,1.2495,0,0,1.2419,1.2422,0,0,0,0,0,0,0,0,1.2185,1.2195,1.2275,1.2276,1.2276,1.2326,1.2326,1.2404,1.2322,1.2304,1.2315,1.2312,1.2373,1.238,1.24,1.2498,1.2502,1.242,1.2423,1.2426,1.2427,0,0,0,0,0,0,0,1.218,1.2191,1.2312,1.2276,1.2277,1.2269,1.2276,1.2341,1.2354,1.2305,1.2303,1.2312,1.2373,1.2395,1.2402,1.2503,1.2419,1.2425,1.2428,1.243,1.2681,1.2684,0,0,0,0,0,0,1.2174,1.2187,1.2309,1.2314,1.2222,1.2274,1.2282,1.2313,1.2353,1.2356,1.2314,1.231,1.2386,1.2395,1.2404,1.2516,1.2425,1.2431,1.2434,1.2678,1.2682,1.2685,0,0,0,0,0,0,1.2171,1.2186,1.2307,1.225,1.2265,1.228,1.2315,1.2316,1.2338,1.236,1.2362,1.2334,1.2384,1.2396,1.2472,1.2518,1.2434,1.2439,1.2674,1.2679,1.2684,1.274,0,0,0,0,0,0,1.2166,1.2185,1.2219,1.2251,1.2268,1.2372,1.2318,1.2319,1.2347,1.2342,1.2379,1.2382,1.2383,1.2464,1.2478,1.2524,1.2443,1.267,1.2676,1.2682,1.2734,1.2746,1.2756,0,0,0,0,0,1.216,1.2233,1.2221,1.2236,1.2312,1.2375,1.2385,1.2383,1.2351,1.2387,1.2401,1.2381,1.2511,1.2472,1.2488,1.2536,1.2667,1.2675,1.2682,1.2729,1.2743,1.2756,0,0,0,0,0,0,1.2207,1.2237,1.2224,1.2309,1.234,1.2369,1.2413,1.2399,1.244,1.2434,1.2431,1.244,1.2519,1.2535,1.2491,1.2629,1.2584,1.2595,1.2615,1.2629,1.264,1.2634,1.2448,0,0,0,0,0,1.2227,1.2275,1.2299,1.2372,1.2388,1.2398,1.2426,1.2422,1.2454,1.2467,1.2486,1.2519,1.2567,1.2599,1.2645,1.2736,1.2744,1.2778,1.2789,1.2798,1.2807,1.2856,1.2872,1.2709,1.2709,1.2709,0,0,1.2269,1.2292,1.2322,1.2382,1.2405,1.2455,1.2409,1.2465,1.2502,1.2476,1.2548,1.2564,1.26,1.2684,1.2722,1.2701,1.2854,1.2807,1.2814,1.2818,1.2865,1.2881,1.2894,1.2714,1.2713,1.2712,0,0,1.2371,1.2393,1.2456,1.248,1.2515,1.2522,1.2537,1.2568,1.2577,1.265,1.2631,1.2677,1.276,1.2786,1.2811,1.2924,1.2907,1.2939,1.2997,1.3045,1.3058,1.3069,1.3109,1.3123,1.2948,1.2948,1.2948,0,1.2419,1.2494,1.249,1.2547,1.2574,1.2551,1.2615,1.2639,1.2688,1.2708,1.2682,1.2786,1.2809,1.2899,1.2926,1.2947,1.2965,1.2934,1.3056,1.3067,1.3078,1.3116,1.3131,1.2952,1.2951,1.2951,1.2951,0,1.2551,1.2603,1.2649,1.2696,1.2728,1.2788,1.2795,1.2828,1.2822,1.2831,1.2906,1.2933,1.2983,1.3005,1.3,1.3094,1.3079,1.3056,1.301,1.3097,1.3132,1.3147,1.2957,1.2956,1.2954,1.2954,0,0,1.2683,1.2727,1.2744,1.2765,1.2803,1.2844,1.2903,1.2951,1.298,1.3015,1.3065,1.3136,1.3114,1.3142,1.314,1.3183,1.327,1.3153,1.3154,1.3173,1.3375,1.3392,1.3409,1.3259,1.3262,1.3264,1.3372,0,1.2788,1.289,1.2889,1.2984,1.3032,1.3012,1.3064,1.3094,1.3104,1.3148,1.316,1.321,1.3177,1.3194,1.3235,1.325,1.331,1.3243,1.3306,1.3308,1.3296,1.3428,1.3446,1.3546,1.3386,1.3388,1.339,0,1.2922,1.296,1.306,1.3091,1.3111,1.3158,1.3202,1.3243,1.3277,1.3282,1.3313,1.3304,1.3366,1.332,1.3405,1.3359,1.3385,1.3397,1.3401,1.3406,1.3353,1.3435,1.3578,1.3592,1.3412,1.341,1.3408,0,1.3008,1.3085,1.3154,1.3173,1.3211,1.3244,1.3261,1.3292,1.3321,1.336,1.3379,1.3426,1.3451,1.3488,1.3492,1.3458,1.3578,1.3532,1.3584,1.3584,1.3609,1.3607,1.3757,1.3628,1.3627,1.3627,1.3627,0,1.3124,1.3185,1.3193,1.3236,1.3305,1.3304,1.3372,1.3387,1.3414,1.346,1.3447,1.349,1.3494,1.3539,1.3544,1.3613,1.3625,1.3631,1.3631,1.3632,1.3631,1.3648,1.3641,1.3631,1.363,1.3629,1.3629,0,1.323,1.3238,1.3312,1.3342,1.3351,1.34,1.3426,1.3467,1.3477,1.3535,1.3549,1.3565,1.3617,1.3626,1.3688,1.3691,1.3774,1.3768,1.3762,1.3761,1.3812,1.3806,1.3977,1.3999,1.3856,1.3858,1.3859,0,1.3303,1.335,1.3384,1.3414,1.3432,1.348,1.3509,1.3511,1.3542,1.3584,1.362,1.3671,1.3712,1.3797,1.3814,1.3862,1.3856,1.3913,1.3863,1.3862,1.3856,1.3853,1.3857,1.3922,1.3923,1.3925,1.3926,0,1.3431,1.3433,1.3475,1.3519,1.3554,1.3589,1.3622,1.3647,1.3653,1.3689,1.3742,1.3774,1.3837,1.3888,1.3935,1.3954,1.3941,1.3941,1.3955,1.3956,1.395,1.3953,1.3787,1.3937,1.3936,1.3935,1.3934,1.3934,1.3523,1.3563,1.3593,1.3641,1.3666,1.3697,1.3737,1.3752,1.3796,1.3846,1.3845,1.3903,1.3936,1.3998,1.402,1.4066,1.4048,1.4069,1.4074,1.4079,1.4083,1.3944,1.4075,1.4075,1.4074,1.4074,1.4074,0,1.3649,1.3668,1.3712,1.3758,1.3796,1.378,1.3815,1.3848,1.3899,1.3931,1.3971,1.4032,1.4081,1.4103,1.4151,1.4184,1.4179,1.4197,1.4194,1.4198,1.4097,1.408,1.42,1.42,1.42,1.42,1.42,1.42,1.3719,1.3787,1.3792,1.3872,1.3891,1.3947,1.3968,1.3998,1.4022,1.4091,1.4131,1.4145,1.4172,1.4223,1.4268,1.4273,1.4291,1.4311,1.4314,1.4218,1.4206,1.4193,1.4177,1.4315,1.4315,1.4411,1.4411,1.4412]},{"header":{"parameterUnit":"m.s-1","parameterCategory":1,"la1":30.2991,"la2":30.254,"lo1":-89.0895,"lo2":-89.0444,"dy":0.0017,"dx":0.0017,"nx":28,"ny":28,"refTime":"2023-10-16T09:00:00:Z","depth":0,"parameterNumber":3,"parameterNumberName":"V-component_of_WINDS"},"data":[0,0,0,0,0,0,0,0,0,0,0,0,0,0,0,0,0,0,0,0,0,0,0,0,0,0,0,0,0,0,0,0,0,0,0,0,0,0,0,0,0,0,0,0,0,0,0,0,0,0,0,0,0,0,0,0,0,0,1.2145,1.2144,0,1.2097,1.2097,1.2096,1.2023,1.2022,1.2021,1.2019,1.1971,1.1971,1.1971,0,0,0,0,0,0,0,0,0,0,0,0,0,1.2171,1.2171,1.2145,1.2144,1.2144,1.2097,1.2097,1.2096,1.2023,1.2022,1.202,1.2019,1.1971,1.1971,1.1971,0,0,0,0,0,0,0,0,0,0,0,0,0,1.2146,1.2171,1.2145,1.2102,1.2097,1.2098,1.2097,1.2096,1.2024,1.2022,1.202,1.2018,1.1971,1.1971,1.1971,1.2009,0,0,1.197,1.197,0,0,0,0,0,0,0,0,1.2147,1.2145,1.2109,1.2105,1.21,1.2064,1.2088,1.2067,1.2024,1.2052,1.2019,1.2017,1.2004,1.2001,1.1996,1.2007,1.2005,1.197,1.197,1.197,1.197,0,0,0,0,0,0,0,1.2149,1.2146,1.2126,1.2108,1.2103,1.2084,1.2079,1.2084,1.2039,1.2049,1.2044,1.2039,1.2001,1.1996,1.1994,1.2004,1.197,1.197,1.197,1.197,1.2042,1.2044,0,0,0,0,0,0,1.2157,1.2148,1.2128,1.2125,1.2119,1.2086,1.2079,1.2078,1.2039,1.2031,1.2041,1.2036,1.1998,1.1995,1.1992,1.2033,1.197,1.197,1.197,1.204,1.2042,1.2044,0,0,0,0,0,0,1.2158,1.2156,1.2129,1.2135,1.213,1.2087,1.2086,1.2078,1.2073,1.2033,1.2024,1.2045,1.1996,1.1993,1.2005,1.203,1.197,1.197,1.2037,1.204,1.2043,1.2116,0,0,0,0,0,0,1.2159,1.2157,1.2171,1.2136,1.213,1.2144,1.2088,1.2078,1.2073,1.2066,1.2034,1.2027,1.1994,1.2006,1.2005,1.2029,1.197,1.2035,1.2039,1.2042,1.2111,1.2121,1.2129,0,0,0,0,0,1.216,1.2194,1.2173,1.2171,1.2148,1.2145,1.2142,1.2104,1.2076,1.2089,1.2063,1.2028,1.2028,1.2008,1.2006,1.2031,1.2033,1.2038,1.2042,1.2107,1.2119,1.2129,0,0,0,0,0,0,1.2235,1.2189,1.2164,1.2188,1.2171,1.2133,1.2149,1.2118,1.2109,1.2103,1.2055,1.2049,1.2067,1.205,1.2028,1.2064,1.2025,1.2029,1.2075,1.2086,1.2095,1.2098,1.197,0,0,0,0,0,1.2254,1.2256,1.2216,1.2241,1.2233,1.2193,1.2191,1.2162,1.2143,1.2135,1.211,1.2092,1.2088,1.2086,1.208,1.2108,1.2099,1.2124,1.2134,1.2141,1.2145,1.2156,1.2166,1.2059,1.2059,1.2059,0,0,1.2294,1.2269,1.2273,1.2255,1.2238,1.2241,1.2188,1.2193,1.2194,1.2136,1.2146,1.2127,1.2103,1.2123,1.2131,1.211,1.2173,1.2147,1.2153,1.2153,1.2162,1.2172,1.2181,1.2062,1.2061,1.2061,0,0,1.2367,1.2349,1.2366,1.2351,1.2326,1.2299,1.2303,1.2269,1.2254,1.2263,1.2219,1.2219,1.2214,1.2198,1.2189,1.2255,1.2221,1.2254,1.2302,1.2313,1.2322,1.2329,1.235,1.2359,1.2259,1.2259,1.2259,0,1.2419,1.2421,1.238,1.2387,1.2379,1.2327,1.2343,1.233,1.2305,1.2301,1.2278,1.2268,1.2249,1.2263,1.2279,1.2274,1.2276,1.2257,1.2324,1.2331,1.2337,1.2357,1.2365,1.2263,1.2262,1.2262,1.2262,0,1.2486,1.2488,1.2505,1.2481,1.2475,1.2488,1.2447,1.2447,1.2418,1.2393,1.2402,1.2377,1.2364,1.2365,1.2339,1.2375,1.2363,1.2333,1.2292,1.2352,1.237,1.2377,1.2269,1.2267,1.2266,1.2265,0,0,1.2605,1.2556,1.2563,1.2551,1.2519,1.2519,1.2529,1.2515,1.2515,1.2499,1.2504,1.25,1.2471,1.2461,1.2432,1.2443,1.2493,1.2411,1.2409,1.2425,1.2529,1.2551,1.256,1.2471,1.2472,1.2473,1.253,0,1.267,1.2683,1.2645,1.2667,1.2667,1.2616,1.2624,1.2605,1.2581,1.2577,1.2551,1.2548,1.2511,1.2505,1.2513,1.2485,1.2513,1.2481,1.2474,1.2474,1.248,1.257,1.2593,1.2648,1.2537,1.2538,1.2539,0,1.2748,1.2735,1.2757,1.2722,1.2721,1.2729,1.2712,1.271,1.2686,1.2668,1.2657,1.2622,1.2627,1.2589,1.2594,1.2573,1.2568,1.2554,1.2555,1.2552,1.251,1.2567,1.2665,1.2673,1.255,1.2549,1.2548,0,1.283,1.2819,1.283,1.2821,1.2781,1.2787,1.277,1.2745,1.2739,1.2724,1.2719,1.2706,1.2699,1.2689,1.2651,1.2627,1.266,1.2619,1.2644,1.2645,1.2652,1.2652,1.2749,1.2652,1.2652,1.2652,1.2652,0,1.2906,1.2921,1.2866,1.2872,1.2887,1.2843,1.2858,1.2837,1.2814,1.2815,1.2771,1.2772,1.2723,1.2719,1.2689,1.2697,1.2694,1.2679,1.267,1.2682,1.2684,1.2677,1.2671,1.2654,1.2653,1.2653,1.2653,0,1.3,1.2964,1.2972,1.2933,1.2923,1.2936,1.2902,1.2906,1.2879,1.288,1.2878,1.2836,1.2828,1.279,1.2774,1.2753,1.277,1.2755,1.2778,1.2773,1.2799,1.2796,1.2894,1.2903,1.2802,1.2803,1.2804,0,1.3051,1.3061,1.3022,1.3019,1.3005,1.3001,1.2994,1.2951,1.2945,1.2918,1.2925,1.2913,1.2902,1.2892,1.2859,1.2846,1.2829,1.2864,1.2826,1.2837,1.2827,1.2826,1.2826,1.2872,1.2873,1.2874,1.2875,0,1.3143,1.3124,1.3116,1.3101,1.3093,1.3079,1.3063,1.3063,1.3014,1.301,1.3002,1.2993,1.2975,1.2964,1.2944,1.2926,1.2892,1.2887,1.2891,1.2903,1.2915,1.2906,1.2798,1.2885,1.2884,1.2883,1.2882,1.2882,1.3215,1.3221,1.3194,1.3186,1.3168,1.3154,1.3155,1.3127,1.312,1.3102,1.3076,1.3071,1.3045,1.3015,1.3,1.2994,1.2974,1.2982,1.2983,1.2985,1.299,1.2917,1.299,1.299,1.299,1.2989,1.2989,0,1.3303,1.3283,1.3276,1.3254,1.3247,1.3215,1.3195,1.3191,1.3186,1.3165,1.3154,1.3143,1.3131,1.3097,1.3082,1.3083,1.3067,1.3081,1.3079,1.3075,1.3009,1.3006,1.3094,1.3094,1.3094,1.3094,1.3094,1.3094,1.3348,1.3356,1.3333,1.3331,1.3311,1.3304,1.3295,1.328,1.3263,1.3253,1.3243,1.322,1.3193,1.3175,1.3162,1.3152,1.3148,1.3166,1.3151,1.309,1.308,1.3071,1.3067,1.3166,1.3166,1.3217,1.3218,1.3218]}]]